Time,TemperatureF,DewpointF,PressureIn,WindDirection,WindDirectionDegrees,WindSpeedMPH,WindSpeedGustMPH,Humidity,HourlyPrecipIn,Conditions,Clouds,dailyrainin,SolarRadiationWatts/m^2,SoftwareType,DateUTC
2013-01-10 00:00:00,41.9,29.8,30.41,WNW,283,4.0,4.0,62,0.00,,,0.00,0,Wunderground v.1.15,2013-01-10 05:00:00,
2013-01-10 00:01:00,41.9,29.8,30.41,West,276,4.0,5.0,62,0.00,,,0.00,0,Wunderground v.1.15,2013-01-10 05:01:00,
2013-01-10 00:02:00,42.0,29.5,30.41,WNW,296,4.0,8.0,61,0.00,,,0.00,0,Wunderground v.1.15,2013-01-10 05:02:00,
2013-01-10 00:06:00,42.0,29.5,30.41,WNW,289,4.0,8.0,61,0.00,,,0.00,0,Wunderground v.1.15,2013-01-10 05:06:00,
2013-01-10 00:11:00,41.9,29.4,30.41,NW,305,5.0,6.0,61,0.00,,,0.00,0,Wunderground v.1.15,2013-01-10 05:11:00,
2013-01-10 00:17:00,41.9,29.0,30.41,West,279,5.0,9.0,60,0.00,,,0.00,0,Wunderground v.1.15,2013-01-10 05:17:00,
2013-01-10 00:23:00,41.8,28.9,30.41,NW,306,5.0,6.0,60,0.00,,,0.00,0,Wunderground v.1.15,2013-01-10 05:23:00,
2013-01-10 00:29:00,41.8,28.9,30.41,WNW,294,5.0,9.0,60,0.00,,,0.00,0,Wunderground v.1.15,2013-01-10 05:29:00,
2013-01-10 00:34:00,41.8,28.5,30.41,WNW,293,5.0,5.0,59,0.00,,,0.00,0,Wunderground v.1.15,2013-01-10 05:34:00,
2013-01-10 00:40:00,41.6,28.3,30.41,West,268,5.0,5.0,59,0.00,,,0.00,0,Wunderground v.1.15,2013-01-10 05:40:00,
2013-01-10 00:46:00,41.5,28.2,30.42,WNW,303,5.0,6.0,59,0.00,,,0.00,0,Wunderground v.1.15,2013-01-10 05:46:00,
2013-01-10 00:51:00,41.5,28.2,30.42,West,269,5.0,5.0,59,0.00,,,0.00,0,Wunderground v.1.15,2013-01-10 05:51:00,
2013-01-10 00:57:00,41.5,27.8,30.43,WNW,294,4.0,6.0,58,0.00,,,0.00,0,Wunderground v.1.15,2013-01-10 05:57:00,
2013-01-10 01:02:00,41.5,27.8,30.43,SW,233,3.0,5.0,58,0.00,,,0.00,0,Wunderground v.1.15,2013-01-10 06:02:00,
2013-01-10 01:08:00,41.5,27.8,30.44,NW,317,4.0,5.0,58,0.00,,,0.00,0,Wunderground v.1.15,2013-01-10 06:08:00,
2013-01-10 01:14:00,41.4,27.7,30.44,WNW,300,3.0,5.0,58,0.00,,,0.00,0,Wunderground v.1.15,2013-01-10 06:14:00,
2013-01-10 01:20:00,41.4,27.7,30.44,WNW,284,2.0,2.0,58,0.00,,,0.00,0,Wunderground v.1.15,2013-01-10 06:20:00,
2013-01-10 01:25:00,41.2,27.5,30.45,South,186,1.0,2.0,58,0.00,,,0.00,0,Wunderground v.1.15,2013-01-10 06:25:00,
2013-01-10 01:31:00,41.1,27.4,30.45,WSW,250,1.0,2.0,58,0.00,,,0.00,0,Wunderground v.1.15,2013-01-10 06:31:00,
2013-01-10 01:36:00,41.0,27.3,30.45,SE,132,1.0,2.0,58,0.00,,,0.00,0,Wunderground v.1.15,2013-01-10 06:36:00,
2013-01-10 01:42:00,40.8,27.6,30.46,SW,232,2.0,2.0,59,0.00,,,0.00,0,Wunderground v.1.15,2013-01-10 06:42:00,
2013-01-10 01:47:00,40.6,27.4,30.46,WSW,254,2.0,2.0,59,0.00,,,0.00,0,Wunderground v.1.15,2013-01-10 06:47:00,
2013-01-10 01:53:00,40.4,27.6,30.47,SW,229,1.0,2.0,60,0.00,,,0.00,0,Wunderground v.1.15,2013-01-10 06:53:00,
2013-01-10 01:58:00,40.4,27.6,30.47,WSW,248,1.0,2.0,60,0.00,,,0.00,0,Wunderground v.1.15,2013-01-10 06:58:00,
2013-01-10 02:04:00,39.6,27.2,30.47,WNW,287,1.0,3.0,61,0.00,,,0.00,0,Wunderground v.1.15,2013-01-10 07:04:00,
2013-01-10 02:09:00,39.5,27.5,30.48,WNW,294,2.0,3.0,62,0.00,,,0.00,0,Wunderground v.1.15,2013-01-10 07:09:00,
2013-01-10 02:15:00,39.0,27.1,30.48,WNW,294,2.0,2.0,62,0.00,,,0.00,0,Wunderground v.1.15,2013-01-10 07:15:00,
2013-01-10 02:20:00,38.9,27.4,30.49,WNW,294,2.0,4.0,63,0.00,,,0.00,0,Wunderground v.1.15,2013-01-10 07:20:00,
2013-01-10 02:26:00,39.2,27.3,30.49,NW,304,3.0,5.0,62,0.00,,,0.00,0,Wunderground v.1.15,2013-01-10 07:26:00,
2013-01-10 02:31:00,39.5,27.2,30.50,NW,324,4.0,4.0,61,0.00,,,0.00,0,Wunderground v.1.15,2013-01-10 07:31:00,
2013-01-10 02:37:00,39.8,27.4,30.50,NW,312,5.0,8.0,61,0.00,,,0.00,0,Wunderground v.1.15,2013-01-10 07:37:00,
2013-01-10 02:43:00,39.8,27.0,30.50,NNW,343,6.0,7.0,60,0.00,,,0.00,0,Wunderground v.1.15,2013-01-10 07:43:00,
2013-01-10 02:49:00,40.1,27.3,30.50,NW,322,6.0,8.0,60,0.00,,,0.00,0,Wunderground v.1.15,2013-01-10 07:49:00,
2013-01-10 02:55:00,40.1,27.3,30.51,NNW,347,6.0,6.0,60,0.00,,,0.00,0,Wunderground v.1.15,2013-01-10 07:55:00,
2013-01-10 03:00:00,39.9,27.1,30.50,NW,311,5.0,5.0,60,0.00,,,0.00,0,Wunderground v.1.15,2013-01-10 08:00:00,
2013-01-10 03:06:00,39.4,27.1,30.51,West,281,4.0,5.0,61,0.00,,,0.00,0,Wunderground v.1.15,2013-01-10 08:06:00,
2013-01-10 03:12:00,39.1,27.2,30.52,WNW,284,3.0,3.0,62,0.00,,,0.00,0,Wunderground v.1.15,2013-01-10 08:12:00,
2013-01-10 03:18:00,38.7,27.2,30.52,WNW,289,2.0,3.0,63,0.00,,,0.00,0,Wunderground v.1.15,2013-01-10 08:18:00,
2013-01-10 03:23:00,38.4,26.9,30.52,WNW,286,2.0,3.0,63,0.00,,,0.00,0,Wunderground v.1.15,2013-01-10 08:23:00,
2013-01-10 03:29:00,38.2,27.1,30.52,WNW,286,1.0,3.0,64,0.00,,,0.00,0,Wunderground v.1.15,2013-01-10 08:29:00,
2013-01-10 03:35:00,38.0,26.9,30.52,WNW,286,1.0,1.0,64,0.00,,,0.00,0,Wunderground v.1.15,2013-01-10 08:35:00,
2013-01-10 03:41:00,37.9,27.2,30.52,WNW,286,1.0,1.0,65,0.00,,,0.00,0,Wunderground v.1.15,2013-01-10 08:41:00,
2013-01-10 03:46:00,37.8,27.1,30.53,WNW,286,1.0,1.0,65,0.00,,,0.00,0,Wunderground v.1.15,2013-01-10 08:46:00,
2013-01-10 03:52:00,37.6,26.9,30.53,WNW,286,1.0,1.0,65,0.00,,,0.00,0,Wunderground v.1.15,2013-01-10 08:52:00,
2013-01-10 03:58:00,37.1,26.8,30.53,WNW,286,0.0,1.0,66,0.00,,,0.00,0,Wunderground v.1.15,2013-01-10 08:58:00,
2013-01-10 04:04:00,36.2,26.6,30.53,WNW,286,1.0,1.0,68,0.00,,,0.00,0,Wunderground v.1.15,2013-01-10 09:04:00,
2013-01-10 04:09:00,35.7,26.5,30.53,WNW,290,1.0,3.0,69,0.00,,,0.00,0,Wunderground v.1.15,2013-01-10 09:09:00,
2013-01-10 04:15:00,35.0,26.5,30.53,WNW,298,2.0,2.0,71,0.00,,,0.00,0,Wunderground v.1.15,2013-01-10 09:15:00,
2013-01-10 04:21:00,35.1,26.6,30.53,NNW,329,2.0,2.0,71,0.00,,,0.00,0,Wunderground v.1.15,2013-01-10 09:21:00,
2013-01-10 04:26:00,35.3,26.8,30.54,NNW,338,2.0,2.0,71,0.00,,,0.00,0,Wunderground v.1.15,2013-01-10 09:26:00,
2013-01-10 04:32:00,35.9,27.1,30.54,NW,322,2.0,7.0,70,0.00,,,0.00,0,Wunderground v.1.15,2013-01-10 09:32:00,
2013-01-10 04:37:00,36.6,27.0,30.54,NW,323,3.0,7.0,68,0.00,,,0.00,0,Wunderground v.1.15,2013-01-10 09:37:00,
2013-01-10 04:43:00,36.9,27.3,30.54,NW,311,4.0,5.0,68,0.00,,,0.00,0,Wunderground v.1.15,2013-01-10 09:43:00,
2013-01-10 04:49:00,36.9,27.0,30.54,WNW,292,4.0,7.0,67,0.00,,,0.00,0,Wunderground v.1.15,2013-01-10 09:49:00,
2013-01-10 04:54:00,37.4,27.1,30.54,West,269,6.0,8.0,66,0.00,,,0.00,0,Wunderground v.1.15,2013-01-10 09:54:00,
2013-01-10 05:00:00,37.5,27.2,30.54,West,267,6.0,10.0,66,0.00,,,0.00,0,Wunderground v.1.15,2013-01-10 10:00:00,
2013-01-10 05:06:00,37.6,26.9,30.55,NNW,329,6.0,10.0,65,0.00,,,0.00,0,Wunderground v.1.15,2013-01-10 10:06:00,
2013-01-10 05:12:00,37.5,26.8,30.55,WNW,286,6.0,6.0,65,0.00,,,0.00,0,Wunderground v.1.15,2013-01-10 10:12:00,
2013-01-10 05:17:00,37.3,27.0,30.56,WNW,292,5.0,6.0,66,0.00,,,0.00,0,Wunderground v.1.15,2013-01-10 10:17:00,
2013-01-10 05:23:00,37.2,26.9,30.56,West,268,4.0,5.0,66,0.00,,,0.00,0,Wunderground v.1.15,2013-01-10 10:23:00,
2013-01-10 05:29:00,37.3,26.6,30.56,NW,315,5.0,7.0,65,0.00,,,0.00,0,Wunderground v.1.15,2013-01-10 10:29:00,
2013-01-10 05:35:00,37.2,26.5,30.56,NW,306,5.0,6.0,65,0.00,,,0.00,0,Wunderground v.1.15,2013-01-10 10:35:00,
2013-01-10 05:40:00,37.0,26.3,30.56,NW,325,5.0,7.0,65,0.00,,,0.00,0,Wunderground v.1.15,2013-01-10 10:40:00,
2013-01-10 05:46:00,37.0,26.3,30.56,WNW,292,5.0,7.0,65,0.00,,,0.00,0,Wunderground v.1.15,2013-01-10 10:46:00,
2013-01-10 05:52:00,36.9,26.6,30.57,WNW,301,4.0,4.0,66,0.00,,,0.00,0,Wunderground v.1.15,2013-01-10 10:52:00,
2013-01-10 05:58:00,36.8,26.5,30.57,WNW,299,3.0,4.0,66,0.00,,,0.00,0,Wunderground v.1.15,2013-01-10 10:58:00,
2013-01-10 06:03:00,36.7,26.4,30.57,WNW,301,2.0,2.0,66,0.00,,,0.00,0,Wunderground v.1.15,2013-01-10 11:03:00,
2013-01-10 06:09:00,36.4,26.5,30.57,WNW,299,1.0,2.0,67,0.00,,,0.00,0,Wunderground v.1.15,2013-01-10 11:09:00,
2013-01-10 06:15:00,35.9,26.4,30.57,WNW,299,1.0,2.0,68,0.00,,,0.00,0,Wunderground v.1.15,2013-01-10 11:15:00,
2013-01-10 06:21:00,35.3,26.5,30.57,WNW,299,1.0,1.0,70,0.00,,,0.00,0,Wunderground v.1.15,2013-01-10 11:21:00,
2013-01-10 06:27:00,35.0,26.2,30.58,WNW,301,1.0,3.0,70,0.00,,,0.00,0,Wunderground v.1.15,2013-01-10 11:27:00,
2013-01-10 06:32:00,35.0,26.5,30.58,WNW,301,1.0,1.0,71,0.00,,,0.00,0,Wunderground v.1.15,2013-01-10 11:32:00,
2013-01-10 06:38:00,35.0,26.5,30.58,WNW,301,2.0,2.0,71,0.00,,,0.00,0,Wunderground v.1.15,2013-01-10 11:38:00,
2013-01-10 06:44:00,34.9,26.4,30.58,NW,307,2.0,2.0,71,0.00,,,0.00,0,Wunderground v.1.15,2013-01-10 11:44:00,
2013-01-10 06:49:00,34.7,26.3,30.58,NW,304,2.0,3.0,71,0.00,,,0.00,0,Wunderground v.1.15,2013-01-10 11:49:00,
2013-01-10 06:55:00,34.6,26.2,30.58,West,279,2.0,4.0,71,0.00,,,0.00,0,Wunderground v.1.15,2013-01-10 11:55:00,
2013-01-10 07:00:00,34.7,26.3,30.59,West,281,2.0,2.0,71,0.00,,,0.00,0,Wunderground v.1.15,2013-01-10 12:00:00,
2013-01-10 07:06:00,34.9,26.4,30.59,West,281,1.0,2.0,71,0.00,,,0.00,0,Wunderground v.1.15,2013-01-10 12:06:00,
2013-01-10 07:11:00,34.5,26.4,30.60,West,275,1.0,1.0,72,0.00,,,0.00,0,Wunderground v.1.15,2013-01-10 12:11:00,
2013-01-10 07:17:00,34.1,26.3,30.60,WNW,292,1.0,4.0,73,0.00,,,0.00,0,Wunderground v.1.15,2013-01-10 12:17:00,
2013-01-10 07:23:00,34.0,26.3,30.60,WNW,282,3.0,5.0,73,0.00,,,0.00,0,Wunderground v.1.15,2013-01-10 12:23:00,
2013-01-10 07:29:00,34.3,26.5,30.60,WNW,298,4.0,5.0,73,0.00,,,0.00,0,Wunderground v.1.15,2013-01-10 12:29:00,
2013-01-10 07:35:00,34.6,26.5,30.61,WNW,288,3.0,5.0,72,0.00,,,0.00,5,Wunderground v.1.15,2013-01-10 12:35:00,
2013-01-10 07:41:00,34.7,26.6,30.62,WNW,300,3.0,5.0,72,0.00,,,0.00,9,Wunderground v.1.15,2013-01-10 12:41:00,
2013-01-10 07:46:00,34.8,26.7,30.61,NNE,16,4.0,7.0,72,0.00,,,0.00,12,Wunderground v.1.15,2013-01-10 12:46:00,
2013-01-10 07:52:00,34.7,26.6,30.62,WNW,302,5.0,5.0,72,0.00,,,0.00,14,Wunderground v.1.15,2013-01-10 12:52:00,
2013-01-10 07:58:00,34.7,26.6,30.62,WNW,293,4.0,6.0,72,0.00,,,0.00,19,Wunderground v.1.15,2013-01-10 12:58:00,
2013-01-10 08:04:00,34.8,26.7,30.63,West,280,4.0,5.0,72,0.00,,,0.00,25,Wunderground v.1.15,2013-01-10 13:04:00,
2013-01-10 08:10:00,34.8,26.7,30.63,WNW,282,4.0,4.0,72,0.00,,,0.00,28,Wunderground v.1.15,2013-01-10 13:10:00,
2013-01-10 08:16:00,34.7,26.6,30.63,NW,317,4.0,5.0,72,0.00,,,0.00,32,Wunderground v.1.15,2013-01-10 13:16:00,
2013-01-10 08:22:00,34.7,26.6,30.64,WNW,299,4.0,6.0,72,0.00,,,0.00,33,Wunderground v.1.15,2013-01-10 13:22:00,
2013-01-10 08:28:00,34.8,26.7,30.64,WNW,294,4.0,6.0,72,0.00,,,0.00,35,Wunderground v.1.15,2013-01-10 13:28:00,
2013-01-10 08:34:00,35.0,26.9,30.64,WNW,300,3.0,4.0,72,0.00,,,0.00,39,Wunderground v.1.15,2013-01-10 13:34:00,
2013-01-10 08:40:00,35.1,27.0,30.64,NW,317,3.0,4.0,72,0.00,,,0.00,84,Wunderground v.1.15,2013-01-10 13:40:00,
2013-01-10 08:46:00,35.2,26.7,30.64,NW,315,4.0,5.0,71,0.00,,,0.00,105,Wunderground v.1.15,2013-01-10 13:46:00,
2013-01-10 08:52:00,35.4,26.9,30.64,WNW,295,3.0,6.0,71,0.00,,,0.00,118,Wunderground v.1.15,2013-01-10 13:52:00,
2013-01-10 08:58:00,35.6,27.1,30.65,NNW,339,4.0,6.0,71,0.00,,,0.00,162,Wunderground v.1.15,2013-01-10 13:58:00,
2013-01-10 09:04:00,35.8,27.3,30.64,WNW,284,3.0,3.0,71,0.00,,,0.00,183,Wunderground v.1.15,2013-01-10 14:04:00,
2013-01-10 09:10:00,36.0,27.2,30.65,NW,318,3.0,4.0,70,0.00,,,0.00,183,Wunderground v.1.15,2013-01-10 14:10:00,
2013-01-10 09:16:00,36.4,27.2,30.65,NW,304,4.0,7.0,69,0.00,,,0.00,216,Wunderground v.1.15,2013-01-10 14:16:00,
2013-01-10 09:21:00,36.8,27.6,30.65,WNW,296,4.0,4.0,69,0.00,,,0.00,202,Wunderground v.1.15,2013-01-10 14:21:00,
2013-01-10 09:27:00,37.0,27.4,30.65,NW,323,4.0,5.0,68,0.00,,,0.00,178,Wunderground v.1.15,2013-01-10 14:27:00,
2013-01-10 09:33:00,37.2,27.6,30.65,NW,306,5.0,6.0,68,0.00,,,0.00,218,Wunderground v.1.15,2013-01-10 14:33:00,
2013-01-10 09:39:00,37.4,27.8,30.65,NNW,327,5.0,7.0,68,0.00,,,0.00,225,Wunderground v.1.15,2013-01-10 14:39:00,
2013-01-10 09:45:00,37.5,27.5,30.65,WNW,288,6.0,9.0,67,0.00,,,0.00,227,Wunderground v.1.15,2013-01-10 14:45:00,
2013-01-10 09:51:00,37.7,27.7,30.65,West,281,6.0,6.0,67,0.00,,,0.00,241,Wunderground v.1.15,2013-01-10 14:51:00,
2013-01-10 09:56:00,38.0,27.6,30.65,NW,304,6.0,6.0,66,0.00,,,0.00,290,Wunderground v.1.15,2013-01-10 14:56:00,
2013-01-10 10:02:00,38.4,27.7,30.65,WNW,300,6.0,6.0,65,0.00,,,0.00,311,Wunderground v.1.15,2013-01-10 15:02:00,
2013-01-10 10:07:00,38.6,27.8,30.65,WNW,286,5.0,6.0,65,0.00,,,0.00,274,Wunderground v.1.15,2013-01-10 15:07:00,
2013-01-10 10:13:00,39.0,27.8,30.65,NW,306,4.0,5.0,64,0.00,,,0.00,290,Wunderground v.1.15,2013-01-10 15:13:00,
2013-01-10 10:18:00,39.1,27.9,30.65,NNW,338,4.0,7.0,64,0.00,,,0.00,306,Wunderground v.1.15,2013-01-10 15:18:00,
2013-01-10 10:24:00,39.3,28.1,30.65,NNW,346,5.0,7.0,64,0.00,,,0.00,350,Wunderground v.1.15,2013-01-10 15:24:00,
2013-01-10 10:30:00,39.8,28.2,30.65,NNW,329,4.0,5.0,63,0.00,,,0.00,313,Wunderground v.1.15,2013-01-10 15:30:00,
2013-01-10 10:36:00,40.0,28.4,30.65,WNW,302,3.0,8.0,63,0.00,,,0.00,348,Wunderground v.1.15,2013-01-10 15:36:00,
2013-01-10 10:42:00,40.0,28.0,30.65,West,265,5.0,7.0,62,0.00,,,0.00,339,Wunderground v.1.15,2013-01-10 15:42:00,
2013-01-10 10:48:00,40.3,28.3,30.64,WNW,283,5.0,10.0,62,0.00,,,0.00,359,Wunderground v.1.15,2013-01-10 15:48:00,
2013-01-10 10:53:00,40.4,28.0,30.64,North,5,5.0,9.0,61,0.00,,,0.00,357,Wunderground v.1.15,2013-01-10 15:53:00,
2013-01-10 10:59:00,40.5,28.1,30.64,WNW,298,6.0,9.0,61,0.00,,,0.00,353,Wunderground v.1.15,2013-01-10 15:59:00,
2013-01-10 11:05:00,40.6,28.2,30.64,NNW,342,5.0,9.0,61,0.00,,,0.00,360,Wunderground v.1.15,2013-01-10 16:05:00,
2013-01-10 11:11:00,40.8,28.4,30.64,NE,36,4.0,5.0,61,0.00,,,0.00,413,Wunderground v.1.15,2013-01-10 16:11:00,
2013-01-10 11:17:00,41.3,28.9,30.63,WNW,291,3.0,5.0,61,0.00,,,0.00,360,Wunderground v.1.15,2013-01-10 16:17:00,
2013-01-10 11:23:00,41.5,28.6,30.63,West,280,3.0,5.0,60,0.00,,,0.00,306,Wunderground v.1.15,2013-01-10 16:23:00,
2013-01-10 11:28:00,41.6,28.7,30.63,WNW,286,4.0,5.0,60,0.00,,,0.00,415,Wunderground v.1.15,2013-01-10 16:28:00,
2013-01-10 11:35:00,41.7,28.8,30.63,West,267,3.0,6.0,60,0.00,,,0.00,441,Wunderground v.1.15,2013-01-10 16:35:00,
2013-01-10 11:41:00,41.9,28.6,30.63,ENE,64,3.0,5.0,59,0.00,,,0.00,434,Wunderground v.1.15,2013-01-10 16:41:00,
2013-01-10 11:47:00,42.0,28.7,30.63,WNW,296,4.0,5.0,59,0.00,,,0.00,417,Wunderground v.1.15,2013-01-10 16:47:00,
2013-01-10 11:53:00,42.1,28.8,30.62,North,349,4.0,6.0,59,0.00,,,0.00,397,Wunderground v.1.15,2013-01-10 16:53:00,
2013-01-10 11:59:00,42.4,28.2,30.62,NW,316,3.0,6.0,57,0.00,,,0.00,483,Wunderground v.1.15,2013-01-10 16:59:00,
2013-01-10 12:05:00,42.5,28.8,30.61,NNW,343,3.0,6.0,58,0.00,,,0.00,476,Wunderground v.1.15,2013-01-10 17:05:00,
2013-01-10 12:11:00,42.8,29.0,30.61,West,275,4.0,4.0,58,0.00,,,0.00,436,Wunderground v.1.15,2013-01-10 17:11:00,
2013-01-10 12:17:00,43.0,28.4,30.61,NNW,345,3.0,5.0,56,0.00,,,0.00,438,Wunderground v.1.15,2013-01-10 17:17:00,
2013-01-10 12:23:00,43.2,28.5,30.60,North,360,3.0,4.0,56,0.00,,,0.00,476,Wunderground v.1.15,2013-01-10 17:23:00,
2013-01-10 12:29:00,43.6,28.5,30.60,West,278,2.0,4.0,55,0.00,,,0.00,485,Wunderground v.1.15,2013-01-10 17:29:00,
2013-01-10 12:34:00,43.9,29.2,30.60,West,259,2.0,4.0,56,0.00,,,0.00,376,Wunderground v.1.15,2013-01-10 17:34:00,
2013-01-10 12:39:00,44.0,28.9,30.60,WNW,284,3.0,4.0,55,0.00,,,0.00,494,Wunderground v.1.15,2013-01-10 17:39:00,
2013-01-10 12:45:00,44.0,28.0,30.60,NW,304,3.0,4.0,53,0.00,,,0.00,399,Wunderground v.1.15,2013-01-10 17:45:00,
2013-01-10 12:50:00,44.2,29.0,30.60,WSW,242,2.0,2.0,55,0.00,,,0.00,343,Wunderground v.1.15,2013-01-10 17:50:00,
2013-01-10 12:56:00,43.9,28.8,30.60,WNW,294,3.0,6.0,55,0.00,,,0.00,174,Wunderground v.1.15,2013-01-10 17:56:00,
2013-01-10 13:02:00,43.6,28.5,30.60,WNW,282,3.0,3.0,55,0.00,,,0.00,357,Wunderground v.1.15,2013-01-10 18:02:00,
2013-01-10 13:07:00,43.5,28.4,30.60,West,274,3.0,6.0,55,0.00,,,0.00,323,Wunderground v.1.15,2013-01-10 18:07:00,
2013-01-10 13:13:00,43.6,28.5,30.59,West,279,4.0,5.0,55,0.00,,,0.00,357,Wunderground v.1.15,2013-01-10 18:13:00,
2013-01-10 13:19:00,43.7,28.6,30.59,NW,311,4.0,6.0,55,0.00,,,0.00,445,Wunderground v.1.15,2013-01-10 18:19:00,
2013-01-10 13:25:00,44.0,28.9,30.60,SE,127,3.0,7.0,55,0.00,,,0.00,371,Wunderground v.1.15,2013-01-10 18:25:00,
2013-01-10 13:31:00,43.8,28.7,30.60,East,82,4.0,6.0,55,0.00,,,0.00,116,Wunderground v.1.15,2013-01-10 18:31:00,
2013-01-10 13:37:00,43.8,28.2,30.60,West,274,4.0,6.0,54,0.00,,,0.00,105,Wunderground v.1.15,2013-01-10 18:37:00,
2013-01-10 13:42:00,43.5,28.4,30.60,NNW,336,4.0,6.0,55,0.00,,,0.00,104,Wunderground v.1.15,2013-01-10 18:42:00,
2013-01-10 13:48:00,43.5,28.4,30.60,WSW,247,4.0,7.0,55,0.00,,,0.00,98,Wunderground v.1.15,2013-01-10 18:48:00,
2013-01-10 13:53:00,43.6,28.5,30.60,NW,325,3.0,5.0,55,0.00,,,0.00,90,Wunderground v.1.15,2013-01-10 18:53:00,
2013-01-10 13:59:00,43.6,28.5,30.60,West,267,3.0,6.0,55,0.00,,,0.00,91,Wunderground v.1.15,2013-01-10 18:59:00,
2013-01-10 14:05:00,43.6,28.0,30.60,West,259,2.0,5.0,54,0.00,,,0.00,91,Wunderground v.1.15,2013-01-10 19:05:00,
2013-01-10 14:11:00,43.9,28.3,30.60,WNW,284,4.0,6.0,54,0.00,,,0.00,74,Wunderground v.1.15,2013-01-10 19:11:00,
2013-01-10 14:16:00,43.6,28.0,30.60,NW,319,5.0,6.0,54,0.00,,,0.00,62,Wunderground v.1.15,2013-01-10 19:16:00,
2013-01-10 14:22:00,43.5,28.4,30.60,West,272,4.0,5.0,55,0.00,,,0.00,69,Wunderground v.1.15,2013-01-10 19:22:00,
2013-01-10 14:27:00,43.9,28.3,30.60,West,275,4.0,5.0,54,0.00,,,0.00,77,Wunderground v.1.15,2013-01-10 19:27:00,
2013-01-10 14:33:00,44.0,28.4,30.61,West,263,3.0,4.0,54,0.00,,,0.00,84,Wunderground v.1.15,2013-01-10 19:33:00,
2013-01-10 14:39:00,44.2,28.6,30.60,WNW,288,2.0,4.0,54,0.00,,,0.00,97,Wunderground v.1.15,2013-01-10 19:39:00,
2013-01-10 14:45:00,44.2,28.1,30.60,WNW,302,2.0,6.0,53,0.00,,,0.00,91,Wunderground v.1.15,2013-01-10 19:45:00,
2013-01-10 14:51:00,44.0,28.0,30.61,WNW,290,4.0,5.0,53,0.00,,,0.00,62,Wunderground v.1.15,2013-01-10 19:51:00,
2013-01-10 14:57:00,44.0,28.4,30.60,West,273,4.0,5.0,54,0.00,,,0.00,56,Wunderground v.1.15,2013-01-10 19:57:00,
2013-01-10 15:02:00,44.1,28.5,30.60,WNW,283,3.0,4.0,54,0.00,,,0.00,67,Wunderground v.1.15,2013-01-10 20:02:00,
2013-01-10 15:08:00,44.0,28.0,30.60,NE,46,3.0,5.0,53,0.00,,,0.00,67,Wunderground v.1.15,2013-01-10 20:08:00,
2013-01-10 15:13:00,44.0,28.0,30.60,NW,319,3.0,5.0,53,0.00,,,0.00,63,Wunderground v.1.15,2013-01-10 20:13:00,
2013-01-10 15:18:00,44.0,28.0,30.60,NW,306,3.0,5.0,53,0.00,,,0.00,56,Wunderground v.1.15,2013-01-10 20:18:00,
2013-01-10 15:24:00,44.0,28.0,30.60,WNW,286,2.0,3.0,53,0.00,,,0.00,49,Wunderground v.1.15,2013-01-10 20:24:00,
2013-01-10 15:30:00,44.0,28.4,30.60,NW,306,3.0,3.0,54,0.00,,,0.00,46,Wunderground v.1.15,2013-01-10 20:30:00,
2013-01-10 15:36:00,44.2,28.6,30.60,West,263,3.0,4.0,54,0.00,,,0.00,44,Wunderground v.1.15,2013-01-10 20:36:00,
2013-01-10 15:41:00,44.3,28.7,30.60,WNW,292,2.0,4.0,54,0.00,,,0.00,42,Wunderground v.1.15,2013-01-10 20:41:00,
2013-01-10 15:47:00,44.1,28.0,30.59,WNW,284,3.0,4.0,53,0.00,,,0.00,33,Wunderground v.1.15,2013-01-10 20:47:00,
2013-01-10 15:53:00,44.0,28.4,30.60,West,273,3.0,3.0,54,0.00,,,0.00,30,Wunderground v.1.15,2013-01-10 20:53:00,
2013-01-10 15:59:00,44.0,28.4,30.60,West,269,2.0,5.0,54,0.00,,,0.00,23,Wunderground v.1.15,2013-01-10 20:59:00,
2013-01-10 16:04:00,43.9,27.9,30.60,WNW,292,3.0,6.0,53,0.00,,,0.00,23,Wunderground v.1.15,2013-01-10 21:04:00,
2013-01-10 16:10:00,43.7,27.7,30.60,WNW,283,3.0,3.0,53,0.00,,,0.00,19,Wunderground v.1.15,2013-01-10 21:10:00,
2013-01-10 16:15:00,43.7,28.1,30.60,WNW,289,2.0,3.0,54,0.00,,,0.00,19,Wunderground v.1.15,2013-01-10 21:15:00,
2013-01-10 16:20:00,43.4,27.8,30.60,WNW,290,2.0,2.0,54,0.00,,,0.00,21,Wunderground v.1.15,2013-01-10 21:20:00,
2013-01-10 16:26:00,43.2,27.7,30.60,WNW,290,2.0,2.0,54,0.00,,,0.00,19,Wunderground v.1.15,2013-01-10 21:26:00,
2013-01-10 16:32:00,43.1,28.0,30.61,WNW,291,2.0,2.0,55,0.00,,,0.00,12,Wunderground v.1.15,2013-01-10 21:32:00,
2013-01-10 16:38:00,42.9,27.8,30.60,WNW,291,2.0,2.0,55,0.00,,,0.00,12,Wunderground v.1.15,2013-01-10 21:38:00,
2013-01-10 16:44:00,42.8,28.2,30.60,WNW,291,1.0,2.0,56,0.00,,,0.00,9,Wunderground v.1.15,2013-01-10 21:44:00,
2013-01-10 16:49:00,42.6,28.0,30.60,WNW,297,1.0,4.0,56,0.00,,,0.00,7,Wunderground v.1.15,2013-01-10 21:49:00,
2013-01-10 16:55:00,42.2,28.0,30.60,NW,311,1.0,2.0,57,0.00,,,0.00,0,Wunderground v.1.15,2013-01-10 21:55:00,
2013-01-10 17:00:00,41.9,28.2,30.60,NW,310,1.0,1.0,58,0.00,,,0.00,0,Wunderground v.1.15,2013-01-10 22:00:00,
2013-01-10 17:06:00,41.6,27.9,30.60,NW,311,1.0,2.0,58,0.00,,,0.00,0,Wunderground v.1.15,2013-01-10 22:06:00,
2013-01-10 17:11:00,41.4,28.1,30.61,NW,311,1.0,1.0,59,0.00,,,0.00,0,Wunderground v.1.15,2013-01-10 22:11:00,
2013-01-10 17:16:00,41.4,27.7,30.61,NW,314,1.0,1.0,58,0.00,,,0.00,0,Wunderground v.1.15,2013-01-10 22:16:00,
2013-01-10 17:22:00,41.3,27.6,30.62,NW,314,1.0,1.0,58,0.00,,,0.00,0,Wunderground v.1.15,2013-01-10 22:22:00,
2013-01-10 17:28:00,41.2,27.9,30.62,NW,314,0.0,1.0,59,0.00,,,0.00,0,Wunderground v.1.15,2013-01-10 22:28:00,
2013-01-10 17:34:00,41.1,28.3,30.62,NW,314,0.0,1.0,60,0.00,,,0.00,0,Wunderground v.1.15,2013-01-10 22:34:00,
2013-01-10 17:39:00,40.9,28.1,30.62,NW,314,1.0,1.0,60,0.00,,,0.00,0,Wunderground v.1.15,2013-01-10 22:39:00,
2013-01-10 17:45:00,40.7,27.9,30.62,NW,314,1.0,1.0,60,0.00,,,0.00,0,Wunderground v.1.15,2013-01-10 22:45:00,
2013-01-10 17:50:00,40.6,27.8,30.62,NW,314,1.0,1.0,60,0.00,,,0.00,0,Wunderground v.1.15,2013-01-10 22:50:00,
2013-01-10 17:56:00,40.4,28.0,30.61,NW,314,1.0,1.0,61,0.00,,,0.00,0,Wunderground v.1.15,2013-01-10 22:56:00,
2013-01-10 18:02:00,40.1,28.1,30.61,NW,314,0.0,0.0,62,0.00,,,0.00,0,Wunderground v.1.15,2013-01-10 23:02:00,
2013-01-10 18:08:00,39.6,28.0,30.61,NW,314,0.0,1.0,63,0.00,,,0.00,0,Wunderground v.1.15,2013-01-10 23:08:00,
2013-01-10 18:14:00,39.2,27.7,30.61,NW,314,1.0,1.0,63,0.00,,,0.00,0,Wunderground v.1.15,2013-01-10 23:14:00,
2013-01-10 18:19:00,39.1,27.9,30.61,NW,314,1.0,1.0,64,0.00,,,0.00,0,Wunderground v.1.15,2013-01-10 23:19:00,
2013-01-10 18:25:00,39.1,28.3,30.62,South,171,0.0,2.0,65,0.00,,,0.00,0,Wunderground v.1.15,2013-01-10 23:25:00,
2013-01-10 18:31:00,39.1,28.3,30.61,SSE,164,1.0,1.0,65,0.00,,,0.00,0,Wunderground v.1.15,2013-01-10 23:31:00,
2013-01-10 18:36:00,38.8,28.8,30.62,SW,227,1.0,1.0,67,0.00,,,0.00,0,Wunderground v.1.15,2013-01-10 23:36:00,
2013-01-10 18:42:00,38.4,28.8,30.62,SW,227,1.0,1.0,68,0.00,,,0.00,0,Wunderground v.1.15,2013-01-10 23:42:00,
2013-01-10 18:48:00,38.1,28.5,30.62,NW,309,1.0,2.0,68,0.00,,,0.00,0,Wunderground v.1.15,2013-01-10 23:48:00,
2013-01-10 18:54:00,38.1,28.8,30.62,NW,309,1.0,1.0,69,0.00,,,0.00,0,Wunderground v.1.15,2013-01-10 23:54:00,
2013-01-10 19:00:00,37.8,28.9,30.62,South,181,0.0,0.0,70,0.00,,,0.00,0,Wunderground v.1.15,2013-01-11 00:00:00,
2013-01-10 19:06:00,37.7,28.8,30.62,SE,138,1.0,1.0,70,0.00,,,0.00,0,Wunderground v.1.15,2013-01-11 00:06:00,
2013-01-10 19:12:00,37.8,28.9,30.61,SE,138,0.0,0.0,70,0.00,,,0.00,0,Wunderground v.1.15,2013-01-11 00:12:00,
2013-01-10 19:18:00,37.6,29.0,30.62,SE,138,0.0,1.0,71,0.00,,,0.00,0,Wunderground v.1.15,2013-01-11 00:18:00,
2013-01-10 19:23:00,37.4,28.5,30.61,SE,130,1.0,1.0,70,0.00,,,0.00,0,Wunderground v.1.15,2013-01-11 00:23:00,
2013-01-10 19:29:00,37.5,28.9,30.61,South,178,1.0,5.0,71,0.00,,,0.00,0,Wunderground v.1.15,2013-01-11 00:29:00,
2013-01-10 19:34:00,36.6,28.1,30.61,SSW,205,3.0,5.0,71,0.00,,,0.00,0,Wunderground v.1.15,2013-01-11 00:34:00,
2013-01-10 19:40:00,36.3,28.5,30.61,SSE,167,3.0,3.0,73,0.00,,,0.00,0,Wunderground v.1.15,2013-01-11 00:40:00,
2013-01-10 19:45:00,36.2,28.0,30.61,North,5,2.0,3.0,72,0.00,,,0.00,0,Wunderground v.1.15,2013-01-11 00:45:00,
2013-01-10 19:51:00,36.5,28.3,30.61,SE,142,2.0,5.0,72,0.00,,,0.00,0,Wunderground v.1.15,2013-01-11 00:51:00,
2013-01-10 19:57:00,36.0,28.2,30.61,WSW,239,2.0,5.0,73,0.00,,,0.00,0,Wunderground v.1.15,2013-01-11 00:57:00,
2013-01-10 20:02:00,35.8,28.3,30.61,NW,307,1.0,2.0,74,0.00,,,0.00,0,Wunderground v.1.15,2013-01-11 01:02:00,
2013-01-10 20:08:00,36.0,28.2,30.60,NNW,331,1.0,2.0,73,0.00,,,0.00,0,Wunderground v.1.15,2013-01-11 01:08:00,
2013-01-10 20:14:00,36.2,28.4,30.61,NW,325,1.0,2.0,73,0.00,,,0.00,0,Wunderground v.1.15,2013-01-11 01:14:00,
2013-01-10 20:20:00,36.4,28.6,30.61,SSW,210,1.0,1.0,73,0.00,,,0.00,0,Wunderground v.1.15,2013-01-11 01:20:00,
2013-01-10 20:28:00,36.4,28.9,30.61,SSW,209,1.0,1.0,74,0.00,,,0.00,0,Wunderground v.1.15,2013-01-11 01:28:00,
2013-01-10 20:33:00,36.3,28.8,30.60,South,186,1.0,4.0,74,0.00,,,0.00,0,Wunderground v.1.15,2013-01-11 01:33:00,
2013-01-10 20:39:00,35.7,28.9,30.60,SSW,198,3.0,4.0,76,0.00,,,0.00,0,Wunderground v.1.15,2013-01-11 01:39:00,
2013-01-10 20:44:00,35.3,28.8,30.60,SSW,198,3.0,3.0,77,0.00,,,0.00,0,Wunderground v.1.15,2013-01-11 01:44:00,
2013-01-10 20:50:00,35.2,28.7,30.60,SSW,200,1.0,1.0,77,0.00,,,0.00,0,Wunderground v.1.15,2013-01-11 01:50:00,
2013-01-10 20:56:00,35.1,28.6,30.61,SSW,200,1.0,1.0,77,0.00,,,0.00,0,Wunderground v.1.15,2013-01-11 01:56:00,
2013-01-10 21:01:00,35.1,28.6,30.61,SSW,200,0.0,1.0,77,0.00,,,0.00,0,Wunderground v.1.15,2013-01-11 02:01:00,
2013-01-10 21:07:00,35.2,28.7,30.61,WNW,300,1.0,1.0,77,0.00,,,0.00,0,Wunderground v.1.15,2013-01-11 02:07:00,
2013-01-10 21:13:00,35.2,28.7,30.61,WNW,300,1.0,1.0,77,0.00,,,0.00,0,Wunderground v.1.15,2013-01-11 02:13:00,
2013-01-10 21:19:00,35.1,28.3,30.61,South,190,1.0,2.0,76,0.00,,,0.00,0,Wunderground v.1.15,2013-01-11 02:19:00,
2013-01-10 21:24:00,35.0,28.8,30.61,South,178,1.0,1.0,78,0.00,,,0.00,0,Wunderground v.1.15,2013-01-11 02:24:00,
2013-01-10 21:30:00,34.8,28.6,30.61,SSE,151,1.0,1.0,78,0.00,,,0.00,0,Wunderground v.1.15,2013-01-11 02:30:00,
2013-01-10 21:36:00,34.7,28.5,30.61,North,5,1.0,1.0,78,0.00,,,0.00,0,Wunderground v.1.15,2013-01-11 02:36:00,
2013-01-10 21:41:00,34.5,28.3,30.61,SSE,166,1.0,2.0,78,0.00,,,0.00,0,Wunderground v.1.15,2013-01-11 02:41:00,
2013-01-10 21:47:00,34.3,28.5,30.61,SSE,167,1.0,2.0,79,0.00,,,0.00,0,Wunderground v.1.15,2013-01-11 02:47:00,
2013-01-10 21:53:00,34.3,28.5,30.62,SSE,167,0.0,1.0,79,0.00,,,0.00,0,Wunderground v.1.15,2013-01-11 02:53:00,
2013-01-10 21:58:00,34.3,28.8,30.62,SSE,167,1.0,2.0,80,0.00,,,0.00,0,Wunderground v.1.15,2013-01-11 02:58:00,
2013-01-10 22:04:00,34.2,29.0,30.62,SSE,167,0.0,0.0,81,0.00,,,0.00,0,Wunderground v.1.15,2013-01-11 03:04:00,
2013-01-10 22:10:00,34.0,28.8,30.61,SSE,167,0.0,0.0,81,0.00,,,0.00,0,Wunderground v.1.15,2013-01-11 03:10:00,
2013-01-10 22:15:00,33.9,29.0,30.61,SSE,167,0.0,0.0,82,0.00,,,0.00,0,Wunderground v.1.15,2013-01-11 03:15:00,
2013-01-10 22:21:00,33.7,29.1,30.62,SSE,167,1.0,1.0,83,0.00,,,0.00,0,Wunderground v.1.15,2013-01-11 03:21:00,
2013-01-10 22:26:00,33.7,29.1,30.62,SW,215,1.0,2.0,83,0.00,,,0.00,0,Wunderground v.1.15,2013-01-11 03:26:00,
2013-01-10 22:32:00,33.6,28.7,30.62,NNW,332,1.0,2.0,82,0.00,,,0.00,0,Wunderground v.1.15,2013-01-11 03:32:00,
2013-01-10 22:37:00,33.6,29.0,30.62,North,355,1.0,2.0,83,0.00,,,0.00,0,Wunderground v.1.15,2013-01-11 03:37:00,
2013-01-10 22:43:00,33.7,28.8,30.62,North,355,1.0,1.0,82,0.00,,,0.00,0,Wunderground v.1.15,2013-01-11 03:43:00,
2013-01-10 22:49:00,33.8,28.6,30.61,North,355,1.0,1.0,81,0.00,,,0.00,0,Wunderground v.1.15,2013-01-11 03:49:00,
2013-01-10 22:55:00,34.1,28.3,30.61,North,350,1.0,2.0,79,0.00,,,0.00,0,Wunderground v.1.15,2013-01-11 03:55:00,
2013-01-10 23:00:00,34.3,28.2,30.61,NE,34,1.0,1.0,78,0.00,,,0.00,0,Wunderground v.1.15,2013-01-11 04:00:00,
2013-01-10 23:06:00,34.6,28.1,30.60,NNE,27,1.0,2.0,77,0.00,,,0.00,0,Wunderground v.1.15,2013-01-11 04:06:00,
2013-01-10 23:12:00,34.7,27.9,30.60,NNE,27,1.0,1.0,76,0.00,,,0.00,0,Wunderground v.1.15,2013-01-11 04:12:00,
2013-01-10 23:18:00,34.8,28.0,30.60,NE,36,1.0,1.0,76,0.00,,,0.00,0,Wunderground v.1.15,2013-01-11 04:18:00,
2013-01-10 23:24:00,34.9,28.1,30.59,North,5,1.0,1.0,76,0.00,,,0.00,0,Wunderground v.1.15,2013-01-11 04:24:00,
2013-01-10 23:30:00,35.1,28.3,30.59,SSE,160,1.0,2.0,76,0.00,,,0.00,0,Wunderground v.1.15,2013-01-11 04:30:00,
2013-01-10 23:36:00,34.3,28.2,30.59,SE,145,2.0,2.0,78,0.00,,,0.00,0,Wunderground v.1.15,2013-01-11 04:36:00,
2013-01-10 23:41:00,33.9,28.1,30.59,SE,145,1.0,1.0,79,0.00,,,0.00,0,Wunderground v.1.15,2013-01-11 04:41:00,
2013-01-10 23:46:00,33.7,28.2,30.58,SE,145,0.0,1.0,80,0.00,,,0.00,0,Wunderground v.1.15,2013-01-11 04:46:00,
2013-01-10 23:52:00,33.8,27.7,30.58,NE,53,1.0,1.0,78,0.00,,,0.00,0,Wunderground v.1.15,2013-01-11 04:52:00,
2013-01-10 23:57:00,34.1,28.0,30.58,SSW,211,1.0,2.0,78,0.00,,,0.00,0,Wunderground v.1.15,2013-01-11 04:57:00,